Weather History for KCEF - January, 2012

Change the Weather History Date:

Saturday, January 28, 2012

  Actual Average Record
Temperature  
Mean Temperature 37 °F -  
Max Temperature 44 °F 30 °F 55 °F (2002)
Min Temperature 30 °F 14 °F -9 °F (2003)
Degree Days  
Heating Degree Days 28    
Moisture  
Dew Point 28 °F    
Average Humidity 67    
Maximum Humidity 87    
Minimum Humidity 46    
Precipitation  
Precipitation 0.00 in - - ()
Sea Level Pressure  
Sea Level Pressure 29.89 in    
Wind  
Wind Speed 10 mph (WSW)    
Max Wind Speed 15 mph    
Max Gust Speed 26 mph    
Visibility 10 miles    
Events      
Averages and records for this station are not official NWS values.
T = Trace of Precipitation, MM = Missing Value Source: NWS Daily Summary

Daily Weather History Graph

Daily Weather History Graph

Search for Another Location

Airport or City:

Trip Planner

Search our weather history database for the weather conditions in past years. The results will help you decide how hot, cold, wet, or windy it might be!

Date:

Astronomy

Jan. 28, 2012 Rise Set
Actual Time 7:07 AM EST 4:58 PM EST
Civil Twilight 6:37 AM EST 5:28 PM EST
Nautical Twilight 6:03 AM EST 6:02 PM EST
Astronomical Twilight 5:30 AM EST 6:35 PM EST
Moon 9:21 AM EST (1/28) 10:52 PM EST (1/28)
Length of Visible Light 10h 51m
Length of Day
9h 51m
Waxing Crescent, 27% of the Moon is Illuminated
Jan 28
Waxing Crescent
Jan 30
First Quarter
Feb 7
Full
Feb 14
Last Quarter
Feb 21
New

Hourly Weather History & Observations

Time (EST) Temp. Windchill Dew Point Humidity Pressure Visibility Wind Dir Wind Speed Gust Speed Precip Events Conditions
12:16 AM 39.2 °F 30.8 °F 30.2 °F 70% 29.74 in 10.0 mi NW 15.0 mph 26.5 mph N/A   Overcast
12:24 AM 39.2 °F 31.2 °F 30.2 °F 70% 29.74 in 10.0 mi NW 13.8 mph 20.7 mph N/A   Mostly Cloudy
12:55 AM 38.5 °F 31.6 °F 28.6 °F 68% 29.77 in 10.0 mi WNW 10.4 mph - N/A   Mostly Cloudy
1:55 AM 39.2 °F 31.2 °F 28.0 °F 64% 29.81 in 10.0 mi NW 13.8 mph 24.2 mph N/A   Overcast
2:55 AM 38.8 °F 32.6 °F 27.5 °F 64% 29.84 in 10.0 mi WNW 9.2 mph - N/A   Overcast
3:55 AM 35.6 °F 29.2 °F 26.6 °F 70% 29.86 in 10.0 mi NW 8.1 mph - N/A   Scattered Clouds
4:55 AM 35.4 °F 28.4 °F 25.7 °F 68% 29.88 in 10.0 mi WNW 9.2 mph - N/A   Mostly Cloudy
5:55 AM 35.1 °F - 24.8 °F 66% 29.92 in 10.0 mi Calm Calm - N/A   Partly Cloudy
6:55 AM 32.0 °F 27.5 °F 24.6 °F 74% 29.95 in 10.0 mi WNW 4.6 mph - N/A   Clear
7:55 AM 30.6 °F 24.7 °F 26.4 °F 85% 29.98 in 10.0 mi West 5.8 mph - N/A   Clear
8:55 AM 37.9 °F 31.5 °F 26.1 °F 62% 30.00 in 10.0 mi West 9.2 mph - N/A   Clear
9:55 AM 38.7 °F 36.3 °F 25.2 °F 58% 30.00 in 10.0 mi SW 3.5 mph - N/A   Clear
10:55 AM 39.2 °F 35.0 °F 24.8 °F 56% 30.01 in 10.0 mi SW 5.8 mph - N/A   Overcast
11:55 AM 40.3 °F 35.5 °F 24.6 °F 54% 29.98 in 10.0 mi WSW 6.9 mph - N/A   Mostly Cloudy
12:55 PM 43.3 °F 37.2 °F 25.9 °F 50% 29.94 in 10.0 mi SSW 11.5 mph - N/A   Clear
1:55 PM 44.8 °F 40.4 °F 25.9 °F 48% 29.90 in 10.0 mi SW 8.1 mph - N/A   Clear
2:55 PM 44.8 °F 38.0 °F 24.8 °F 46% 29.90 in 10.0 mi South 15.0 mph 20.7 mph N/A   Mostly Cloudy
3:55 PM 43.7 °F 38.1 °F 26.1 °F 50% 29.88 in 10.0 mi SSW 10.4 mph - N/A   Overcast
4:55 PM 41.7 °F 34.4 °F 26.6 °F 55% 29.87 in 10.0 mi South 13.8 mph 24.2 mph N/A   Overcast
5:55 PM 40.3 °F 33.0 °F 26.4 °F 58% 29.88 in 10.0 mi South 12.7 mph - N/A   Overcast
6:55 PM 38.5 °F 31.6 °F 27.5 °F 65% 29.90 in 10.0 mi South 10.4 mph - N/A   Clear
7:55 PM 37.2 °F 30.0 °F 28.6 °F 71% 29.89 in 10.0 mi South 10.4 mph - N/A   Clear
8:55 PM 36.3 °F 28.0 °F 29.7 °F 77% 29.88 in 10.0 mi South 12.7 mph - N/A   Partly Cloudy
9:55 PM 35.8 °F 27.8 °F 30.4 °F 81% 29.88 in 10.0 mi South 11.5 mph - N/A   Clear
10:50 PM 35.6 °F 30.7 °F 30.2 °F 81% 29.90 in 10.0 mi WSW 5.8 mph - N/A   Overcast
10:55 PM 36.5 °F 31.8 °F 30.9 °F 80% 29.91 in 10.0 mi West 5.8 mph - 0.00 in   Overcast
11:10 PM 35.6 °F 32.8 °F 32.0 °F 87% 29.91 in 10.0 mi SW 3.5 mph - N/A   Overcast
11:39 PM 35.6 °F 29.2 °F 32.0 °F 87% 29.91 in 10.0 mi SW 8.1 mph - N/A   Overcast
11:55 PM 34.9 °F 29.0 °F 30.9 °F 85% 29.91 in 10.0 mi SSW 6.9 mph - 0.00 in   Mostly Cloudy